Hayward, WI

12:27 AM CST on February 26, 2017 (GMT -0600)
Sawyer County

Weather History for KHYR - October, 2013

Change the Weather History Date:

Sunday, October 20, 2013

  Actual Average Record
Temperature  
Mean Temperature 30 °F -  
Max Temperature 39 °F 62 °F 78 °F (2003)
Min Temperature 24 °F 35 °F 21 °F (1999)
Degree Days  
Heating Degree Days 34    
Moisture  
Dew Point 29 °F    
Average Humidity 93    
Maximum Humidity 100    
Minimum Humidity 86    
Precipitation  
Precipitation 0.25 in - - ()
Sea Level Pressure  
Sea Level Pressure 29.73 in    
Wind  
Wind Speed 1 mph (ESE)    
Max Wind Speed 7 mph    
Max Gust Speed -    
Visibility 4 miles    
Events Fog , Rain , Snow    
Averages and records for this station are not official NWS values.
T = Trace of Precipitation, MM = Missing Value Source: NWS Daily Summary

Daily Weather History Graph

Daily Weather History Graph

Search for Another Location

Airport or City:

Trip Planner

Search our weather history database for the weather conditions in past years. The results will help you decide how hot, cold, wet, or windy it might be!

Date:

Astronomy

Oct. 20, 2013 Rise Set
Actual Time 7:29 AM CDT 6:10 PM CDT
Civil Twilight 6:59 AM CDT 6:40 PM CDT
Nautical Twilight 6:24 AM CDT 7:15 PM CDT
Astronomical Twilight 5:50 AM CDT 7:50 PM CDT
Moon 7:12 PM CDT (10/20) 9:13 AM CDT (10/20)
Length of Visible Light 11h 41m
Length of Day
10h 40m
Full, 97% of the Moon is Illuminated
Oct 20
Full
Oct 26
Last Quarter
Nov 3
New
Nov 9
First Quarter
Nov 17
Full

Hourly Weather History & Observations

Time (CDT) Temp. Windchill Dew Point Humidity Pressure Visibility Wind Dir Wind Speed Gust Speed Precip Events Conditions
12:20 AM 28.4 °F - 26.6 °F 93% 29.75 in 8.0 mi Calm Calm - N/A   Scattered Clouds
12:26 AM 28.4 °F - 26.6 °F 93% 29.75 in 1.8 mi Calm Calm - N/A   Mostly Cloudy
12:36 AM 28.4 °F - 26.6 °F 93% 29.76 in 3.0 mi Calm Calm - N/A   Mostly Cloudy
12:53 AM 27.0 °F - 25.0 °F 92% 29.80 in 6.0 mi Calm Calm - N/A   Mostly Cloudy
1:00 AM 28.4 °F - 26.6 °F 93% 29.76 in 5.0 mi Calm Calm - N/A   Scattered Clouds
1:15 AM 28.4 °F - 26.6 °F 93% 29.75 in 1.8 mi Calm Calm - N/A   Partly Cloudy
1:19 AM 28.4 °F - 26.6 °F 93% 29.75 in 0.8 mi Calm Calm - N/A   Mist
1:26 AM 28.4 °F - 24.8 °F 86% 29.75 in 1.2 mi Calm Calm - N/A   Partly Cloudy
1:29 AM 26.6 °F - 24.8 °F 93% 29.75 in 3.0 mi Calm Calm - N/A   Partly Cloudy
1:53 AM 26.1 °F - 24.1 °F 92% 29.80 in 6.0 mi Calm Calm - N/A   Scattered Clouds
2:53 AM 27.0 °F - 25.0 °F 92% 29.80 in 6.0 mi Calm Calm - N/A   Clear
3:27 AM 24.8 °F - 24.8 °F 100% 29.75 in 1.2 mi Calm Calm - N/A   Clear
3:30 AM 24.8 °F - 24.8 °F 100% 29.75 in 0.8 mi Calm Calm - N/A   Clear
3:37 AM 26.6 °F - 24.8 °F 93% 29.75 in 1.2 mi Calm Calm - N/A   Clear
3:41 AM 26.6 °F - 24.8 °F 93% 29.75 in 4.0 mi Calm Calm - N/A   Clear
3:53 AM 26.1 °F - 24.1 °F 92% 29.78 in 10.0 mi Calm Calm - N/A   Clear
4:53 AM 25.0 °F - 23.0 °F 92% 29.79 in 1.5 mi Calm Calm - N/A   Partly Cloudy
5:05 AM 24.8 °F - 23.0 °F 93% 29.75 in 3.0 mi Calm Calm - N/A   Partly Cloudy
5:14 AM 24.8 °F - 24.8 °F 100% 29.75 in 2.5 mi Calm Calm - N/A   Partly Cloudy
5:24 AM 24.8 °F - 24.8 °F 100% 29.75 in 1.5 mi Calm Calm - N/A   Clear
5:53 AM 26.1 °F - 24.1 °F 92% 29.79 in 4.0 mi Calm Calm - N/A   Partly Cloudy
6:04 AM 26.6 °F - 24.8 °F 93% 29.75 in 1.8 mi Calm Calm - N/A   Mostly Cloudy
6:14 AM 26.6 °F - 24.8 °F 93% 29.75 in 0.8 mi Calm Calm - N/A   Scattered Clouds
6:19 AM 26.6 °F - 24.8 °F 93% 29.75 in 1.2 mi Calm Calm - N/A   Scattered Clouds
6:24 AM 26.6 °F - 23.0 °F 86% 29.75 in 3.0 mi Calm Calm - N/A   Scattered Clouds
6:53 AM 25.0 °F - 23.0 °F 92% 29.79 in 10.0 mi Calm Calm - N/A   Scattered Clouds
7:10 AM 26.6 °F - 24.8 °F 93% 29.74 in 10.0 mi Calm Calm - N/A   Mostly Cloudy
7:19 AM 26.6 °F - 24.8 °F 93% 29.74 in 10.0 mi Calm Calm - N/A   Mostly Cloudy
7:53 AM 28.0 °F - 26.1 °F 92% 29.79 in 2.5 mi Calm Calm - N/A   Overcast
8:07 AM 28.4 °F - 26.6 °F 93% 29.74 in 10.0 mi Calm Calm - N/A   Mostly Cloudy
8:16 AM 28.4 °F - 26.6 °F 93% 29.75 in 10.0 mi Calm Calm - N/A   Mostly Cloudy
8:53 AM 30.9 °F - 28.9 °F 92% 29.79 in 9.0 mi Calm Calm - N/A   Overcast
9:53 AM 35.1 °F 29.3 °F 33.1 °F 92% 29.78 in 10.0 mi SE 6.9 mph - N/A   Overcast
10:53 AM 35.1 °F 30.1 °F 33.1 °F 92% 29.77 in 10.0 mi SSE 5.8 mph - N/A   Overcast
11:53 AM 37.9 °F 32.7 °F 34.0 °F 86% 29.76 in 10.0 mi SE 6.9 mph - N/A   Overcast
12:53 PM 37.9 °F 33.5 °F 34.0 °F 86% 29.75 in 7.0 mi SSE 5.8 mph - 0.00 in Rain Light Rain
1:00 PM 37.4 °F 32.1 °F 33.8 °F 87% 29.71 in 5.0 mi South 6.9 mph - 0.01 in Rain Light Rain
1:09 PM 35.6 °F 29.9 °F 33.8 °F 93% 29.70 in 4.0 mi SSE 6.9 mph - 0.01 in Rain Light Rain
1:15 PM 35.6 °F 30.7 °F 33.8 °F 93% 29.70 in 4.0 mi SSE 5.8 mph - 0.02 in Rain Light Rain
1:35 PM 33.8 °F 30.8 °F 33.8 °F 100% 29.70 in 2.0 mi SE 3.5 mph - 0.04 in Snow Light Snow
1:48 PM 33.8 °F - 32.0 °F 93% 29.69 in 1.2 mi Calm Calm - 0.05 in Snow Light Snow
1:53 PM 33.1 °F - 32.0 °F 96% 29.74 in 1.0 mi Calm Calm - 0.05 in Snow Light Snow
2:07 PM 33.8 °F - 32.0 °F 93% 29.69 in 1.2 mi Calm Calm - 0.01 in Snow Light Snow
2:15 PM 33.8 °F - 32.0 °F 93% 29.68 in 1.0 mi Calm Calm - 0.02 in Snow Light Snow
2:23 PM 33.8 °F - 32.0 °F 93% 29.68 in 0.8 mi Calm Calm - 0.03 in Snow Light Snow
2:34 PM 33.8 °F - 32.0 °F 93% 29.68 in 1.0 mi Calm Calm - 0.04 in Snow Light Snow
2:43 PM 33.8 °F - 32.0 °F 93% 29.68 in 0.8 mi Calm Calm - 0.06 in Snow Light Snow
2:53 PM 33.1 °F - 32.0 °F 96% 29.72 in 0.5 mi Calm Calm - 0.07 in Fog , Snow Snow
3:07 PM 33.8 °F - 32.0 °F 93% 29.67 in 0.8 mi Calm Calm - 0.01 in Snow Light Snow
3:11 PM 33.8 °F - 32.0 °F 93% 29.67 in 1.2 mi Calm Calm - 0.01 in Snow Light Snow
3:21 PM 33.8 °F 30.8 °F 32.0 °F 93% 29.67 in 2.0 mi NNE 3.5 mph - 0.02 in Snow Light Snow
3:29 PM 33.8 °F - 32.0 °F 93% 29.67 in 1.5 mi Calm Calm - 0.02 in Snow Light Snow
3:48 PM 33.8 °F - 32.0 °F 93% 29.67 in 1.0 mi Calm Calm - 0.03 in Snow Light Snow
3:53 PM 33.1 °F - 32.0 °F 96% 29.72 in 1.2 mi Calm Calm - 0.03 in Snow Light Snow
4:03 PM 33.8 °F - 32.0 °F 93% 29.67 in 2.0 mi Calm Calm - 0.01 in Snow Light Snow
4:06 PM 33.8 °F 30.8 °F 32.0 °F 93% 29.67 in 3.0 mi NNE 3.5 mph - 0.01 in Snow Light Snow
4:19 PM 33.8 °F - 32.0 °F 93% 29.67 in 2.5 mi Calm Calm - 0.01 in Snow Light Snow
4:24 PM 33.8 °F - 32.0 °F 93% 29.67 in 1.8 mi Calm Calm - 0.01 in Snow Light Snow
4:41 PM 33.8 °F 30.8 °F 32.0 °F 93% 29.68 in 2.5 mi NNE 3.5 mph - 0.02 in Snow Light Snow
4:53 PM 33.1 °F - 32.0 °F 96% 29.73 in 2.5 mi Calm Calm - 0.03 in Snow Light Snow
5:11 PM 33.8 °F - 32.0 °F 93% 29.67 in 2.0 mi Calm Calm - 0.00 in Snow Light Snow
5:21 PM 33.8 °F - 32.0 °F 93% 29.67 in 1.5 mi Calm Calm - 0.01 in Snow Light Snow
5:53 PM 33.1 °F 30.0 °F 32.0 °F 96% 29.73 in 2.0 mi North 3.5 mph - 0.02 in Snow Light Snow
6:11 PM 33.8 °F - 32.0 °F 93% 29.68 in 1.5 mi Calm Calm - 0.01 in Snow Light Snow
6:53 PM 33.1 °F - 32.0 °F 96% 29.74 in 2.0 mi Calm Calm - 0.03 in Snow Light Snow
6:58 PM 33.8 °F - 32.0 °F 93% 29.69 in 1.8 mi Calm Calm - 0.00 in Snow Light Snow
7:07 PM 33.8 °F - 32.0 °F 93% 29.69 in 2.0 mi Calm Calm - 0.00 in Snow Light Snow
7:19 PM 33.8 °F - 32.0 °F 93% 29.70 in 4.0 mi Calm Calm - 0.01 in Snow Light Snow
7:53 PM 33.1 °F - 32.0 °F 96% 29.75 in 3.0 mi Calm Calm - 0.01 in Snow Light Snow
8:05 PM 33.8 °F - 32.0 °F 93% 29.70 in 2.5 mi Calm Calm - 0.00 in Snow Light Snow
8:22 PM 33.8 °F - 32.0 °F 93% 29.71 in 3.0 mi Calm Calm - 0.00 in Snow Light Snow
8:35 PM 33.8 °F - 32.0 °F 93% 29.71 in 3.0 mi Calm Calm - 0.00 in Snow Light Snow
8:53 PM 33.1 °F - 32.0 °F 96% 29.75 in 4.0 mi Calm Calm - 0.01 in Snow Light Snow
9:53 PM 33.1 °F 30.0 °F 32.0 °F 96% 29.77 in 8.0 mi Variable 3.5 mph - 0.00 in   Overcast
10:07 PM 33.8 °F 30.8 °F 32.0 °F 93% 29.73 in 6.0 mi Variable 3.5 mph - 0.00 in Snow Light Snow
10:53 PM 33.1 °F - 32.0 °F 96% 29.78 in 4.0 mi Calm Calm - 0.00 in Snow Light Snow
11:53 PM 33.1 °F 30.0 °F 32.0 °F 96% 29.79 in 10.0 mi Variable 3.5 mph - 0.00 in   Overcast